Back to catalog

STARLINK-31087

AliveCommunicationsVLEO
NORAD 58597·PAYLOAD·🇺🇸 United States

Launched Dec 19, 2023 from Cape Canaveral Space Force Station

Loading…

Next Passes (next 24 hours)

TLE

FreshSource: CelesTrak SupGP

Epoch: Sep 14, 2026, 20:43 UTC

1 58597C 23200J   26257.86368056 -.00008619  00000+0 -31215-3 0  2572
2 58597  43.0028 180.1857 0001328 264.8034 190.8062 15.27585507    16

Track STARLINK-31087 in real time with AllMySat

Download on the App Store